Flag for Germany Weather for the Past 2 Weeks in Heidenheim an der Brenz, Baden-Württemberg, Germany

Now
45 °F

Partly sunny.


Feels Like: 45 °F
Forecast: 43 / 59 °F
Wind: 2 mph from Northwest

Location: Laupheim Airport

Current Time: May 1, 2016 at 8:56:10 AM

Latest Report: May 1, 2016 at 7:20 AM


Visibility: 5 mi

Pressure: 29.95 "Hg

Humidity: 93%

Dew Point: 43 °F

Location of Heidenheim an der BrenzLocation

Historic Weather in Heidenheim an der Brenz — Graph

°F

Heidenheim an der Brenz Temperature Yesterday

Maximum temperature yesterday: 63 °F (at 3:20 PM)
Minimum temperature yesterday: 34 °F (at 6:20 AM)
Average temperature yesterday: 50 °F

High & Low Weather Summary for the Past Weeks

 TemperatureHumidityPressure
High64 °F (Apr 21, 3:20 PM)100% (Apr 18, 5:20 AM)30.36 "Hg (Apr 18, 5:20 AM)
Low28 °F (Apr 28, 4:20 AM)33% (Apr 29, 7:20 PM)29.59 "Hg (Apr 26, 7:20 AM)
Average44 °F73%29.95 "Hg
* Reported Apr 16 6:20 AM — May 1 6:20 AM, Heidenheim an der Brenz, Weather by CustomWeather, © 2016

Note: Actual official high and low records may vary slightly from our data, if they occured in-between our weather recording intervals... More about our weather records

Advertising

Heidenheim an der Brenz Weather History for the Previous 24 Hours

Scroll right to see more
 ConditionsComfort  
Time TempWeatherWind HumidityBarometerVisibility
6:20 AM
Sun, May 1
45 °FPassing clouds.5 mph93%29.92 "Hg5 mi
5:20 AM45 °FLight rain. Mostly cloudy.7 mph93%29.89 "Hg6 mi
4:20 AM45 °FPassing clouds.8 mph87%29.89 "HgN/A
3:20 AM45 °FPassing clouds.6 mph87%29.89 "HgN/A
2:49 AM45 °FPassing clouds.7 mph87%29.89 "HgN/A
2:20 AM45 °FPartly cloudy.7 mph87%29.89 "HgN/A
1:20 AM45 °FPassing clouds.9 mph87%29.89 "HgN/A
12:20 AM46 °FPassing clouds.9 mph87%29.86 "HgN/A
11:20 PM
Sat, Apr 30
46 °FLight rain. Partly cloudy.13 mph87%29.89 "HgN/A
10:20 PM52 °FLight rain. Partly cloudy.3 mph62%29.89 "HgN/A
9:20 PM55 °FMostly cloudy.12 mph47%29.86 "HgN/A
8:20 PM57 °FScattered showers. Broken clouds.13 mph44%29.86 "HgN/A
7:20 PM59 °FPartly sunny.9 mph45%29.86 "HgN/A
6:20 PM61 °FBroken clouds.9 mph36%29.86 "HgN/A
5:20 PM61 °FBroken clouds.9 mph39%29.89 "HgN/A
4:20 PM61 °FBroken clouds.7 mph39%29.89 "HgN/A
3:20 PM63 °FBroken clouds.8 mph37%29.92 "HgN/A
2:20 PM61 °FPartly sunny.5 mph39%29.92 "HgN/A
1:20 PM61 °FPartly sunny.3 mph39%29.95 "HgN/A
12:20 PM59 °FPartly sunny.2 mph48%29.98 "HgN/A
11:20 AM55 °FPartly sunny.2 mph55%29.98 "HgN/A
10:20 AM52 °FScattered clouds.3 mph62%30.01 "HgN/A
9:20 AM46 °FScattered clouds.2 mph71%30.01 "HgN/A
8:20 AM41 °FPartly sunny.2 mph81%30.01 "HgN/A
Weather by CustomWeather, © 2016

See weather overviewHow to use our weather pages